Location: Unspecified
(0.0000°N, 0.0000°E)
Time: 17:52:10
(UTC+00:00)

STARLINK 1041 - Pass Details

Date: 16 January 2020
Orbit: 549 x 551 km, 53.0° (Epoch: 17 January)

Event Time Altitude Azimuth Distance (km) Brightness Sun altitude
Rises 19:55:47 0° 292° (WNW) 2,704 7.8 -24.6°
Reaches altitude 10° 19:59:00 10° 265° (W) 1,815 7.2 -25.4°
Maximum altitude 20:01:05 14° 235° (SW) 1,602 6.9 -25.9°
Drops below altitude 10° 20:03:09 10° 205° (SSW) 1,819 6.8 -26.3°
Sets 20:06:24 0° 178° (S) 2,716 7.4 -27.1°
